Flag for Canada Weather past 2 weeks in Summerside, Pr.Edward I, Canada

Now
58 °F

Refreshingly cool.


Feels Like: 53 °F
Forecast: N/A
Wind: 24 mph from Southwest

Location: Summerside Airport

Current Time: Sep 20, 2014 at 5:49:21 PM

Latest Report: Sep 20, 2014 at 5:00 PM


Visibility: N/A

Pressure: 30.11 "Hg

Humidity: 55%

Dew point: 42 °F

Location of SummersideLocation

Historic Weather in Summerside — Graph

°F

Summerside temperature yesterday

Maximum temperature yesterday: 53 °F (at 3:00 PM)
Minimum temperature yesterday: 35 °F (at 11:00 PM)
Average temperature yesterday: 45 °F

Past Weeks' High & Low Weather Summary

 TemperatureHumidityPressure
High79 °F (Sep 5, 4:00 PM)97% (Sep 11, 7:00 AM)30.47 "Hg (Sep 11, 7:00 AM)
Low35 °F (Sep 19, 11:00 PM)29% (Sep 8, 5:00 PM)29.64 "Hg (Sep 6, 5:00 PM)
Average58 °F73%30.06 "Hg
* Reported Sep 5 4:00 PM — Sep 20 4:00 PM, Summerside, Weather by CustomWeather, © 2014

Note: Actual official high and low records may vary slightly from our data, if they occured in-between our weather recording intervals... More about our weather records

Advertising

Summerside weather history for previous 24 hours

 ConditionsComfort  
Time TempWeatherWind HumidityBarometerVisibility
4:00 PM
Sep 20
58 °FRefreshingly cool.26 mph58%30.13 "HgN/A
3:00 PM58 °FRefreshingly cool.26 mph55%30.14 "HgN/A
2:00 PM59 °FRefreshingly cool.29 mph58%30.16 "HgN/A
10:00 AM52 °FCool.20 mph59%30.25 "HgN/A
9:00 AM50 °FCool.17 mph61%30.27 "HgN/A
8:00 AM49 °FCool.16 mph63%30.29 "HgN/A
7:00 AM49 °FCool.15 mph60%30.31 "HgN/A
6:00 AM49 °FCool.15 mph54%30.32 "HgN/A
5:00 AM48 °FCool.9 mph52%30.32 "HgN/A
4:00 AM48 °FCool.9 mph63%30.33 "HgN/A
3:00 AM47 °FCool.7 mph66%30.34 "HgN/A
2:00 AM46 °FCool.8 mph64%30.34 "HgN/A
1:00 AM43 °FQuite cool.8 mph71%30.34 "HgN/A
12:00 AM39 °FChilly.6 mph66%30.33 "HgN/A
11:00 PM
Sep 19
35 °FChilly.3 mph84%30.33 "HgN/A
10:00 PM39 °FChilly.3 mph72%30.34 "HgN/A
9:00 PM39 °FChilly.3 mph76%30.33 "HgN/A
8:00 PM42 °FQuite cool.1 mph67%30.30 "HgN/A
7:00 PM47 °FCool.6 mph49%30.29 "HgN/A
6:00 PM51 °FCool.12 mph35%30.28 "HgN/A
5:00 PM53 °FCool.14 mph34%30.28 "HgN/A
Weather by CustomWeather, © 2014

See weather overviewHow to use our weather pages